KLM682 EHAM-CYVR

Flight info

Callsign KLM682
Flight time N/A
Altitude 33000
Route ANDIK Z733 KONOM DCT SUTEB/N0473F340 DCT KARLI DCT ALLOY/N0488F360 DCT IPTON/M083F360 DCT 65N020W 65N030W 66N040W 67N050W/M083F380 DCT EPMAN/N0480F380 DCT YZS DCT YMM/N0478F400 DCT YZU DCT NADPI DCT MERYT DCT BOOTH LIONN4
Aircraft MD11/H-SDE1E2E3FGHIJ2J3J4J5M1RWXY/LB1D1

Departure

Time N/A
Airport Amsterdam Airport Schiphol (EHAM)

Arrival

Time 2026-05-05 10:00
Airport Vancouver International Airport (CYVR)
Time Latitude Longitude Altitude Speed Heading
2026-05-05 09:30 50.83752 -119.19265 39963 ft 498 kts 240°
2026-05-05 09:31 50.81637 -119.23609 39960 ft 498 kts 240°
2026-05-05 09:31 50.77403 -119.32281 39958 ft 498 kts 240°
2026-05-05 09:32 50.73169 -119.40920 39968 ft 496 kts 240°
2026-05-05 09:32 50.68945 -119.49514 39958 ft 496 kts 240°
2026-05-05 09:33 50.64714 -119.58006 39965 ft 496 kts 240°
2026-05-05 09:33 50.60450 -119.66553 39961 ft 497 kts 240°
2026-05-05 09:34 50.56187 -119.75127 39961 ft 497 kts 240°
2026-05-05 09:34 50.51926 -119.83684 39961 ft 497 kts 239°
2026-05-05 09:35 50.47660 -119.92222 39951 ft 497 kts 239°
2026-05-05 09:35 50.41253 -120.04997 39944 ft 496 kts 239°
2026-05-05 09:36 50.36982 -120.13472 39957 ft 495 kts 239°
2026-05-05 09:36 50.32711 -120.21922 39952 ft 495 kts 239°
2026-05-05 09:37 50.28472 -120.30272 39948 ft 487 kts 239°
2026-05-05 09:37 50.24248 -120.38584 39186 ft 489 kts 239°
2026-05-05 09:38 50.22137 -120.42725 38430 ft 486 kts 239°
2026-05-05 09:38 50.20056 -120.46799 37606 ft 485 kts 239°
2026-05-05 09:38 50.17949 -120.50920 36970 ft 486 kts 238°
2026-05-05 09:38 50.15798 -120.55096 36402 ft 487 kts 238°
2026-05-05 09:39 50.13668 -120.59199 35879 ft 488 kts 238°
2026-05-05 09:39 50.11529 -120.63318 35347 ft 488 kts 238°
2026-05-05 09:39 50.09400 -120.67427 34832 ft 488 kts 238°
2026-05-05 09:39 50.07270 -120.71546 34284 ft 487 kts 237°
2026-05-05 09:40 50.05146 -120.75654 33687 ft 487 kts 237°
2026-05-05 09:40 50.03022 -120.79760 33107 ft 488 kts 237°
2026-05-05 09:40 50.00918 -120.83826 32518 ft 491 kts 237°
2026-05-05 09:40 49.98773 -120.87964 31943 ft 492 kts 237°
2026-05-05 09:41 49.96620 -120.92110 31366 ft 494 kts 236°
2026-05-05 09:41 49.94452 -120.96274 30781 ft 496 kts 236°
2026-05-05 09:41 49.92352 -121.00512 30195 ft 495 kts 240°
2026-05-05 09:41 49.90459 -121.04951 29502 ft 493 kts 243°
2026-05-05 09:42 49.88694 -121.09509 28777 ft 491 kts 245°
2026-05-05 09:42 49.86996 -121.14077 28067 ft 487 kts 245°
2026-05-05 09:42 49.85321 -121.18612 27386 ft 481 kts 245°
2026-05-05 09:42 49.83656 -121.23088 26713 ft 478 kts 245°
2026-05-05 09:43 49.81992 -121.27513 26055 ft 473 kts 245°
2026-05-05 09:43 49.80332 -121.31891 25400 ft 470 kts 244°
2026-05-05 09:43 49.78678 -121.36227 24727 ft 465 kts 244°
2026-05-05 09:43 49.77036 -121.40516 24087 ft 460 kts 244°
2026-05-05 09:44 49.75410 -121.44748 23464 ft 456 kts 244°
2026-05-05 09:44 49.73797 -121.48942 22752 ft 452 kts 244°
2026-05-05 09:44 49.72194 -121.53105 22081 ft 448 kts 244°
2026-05-05 09:44 49.70605 -121.57228 21445 ft 444 kts 244°
2026-05-05 09:45 49.69032 -121.61299 20827 ft 439 kts 244°
2026-05-05 09:45 49.67471 -121.65336 20209 ft 435 kts 243°
2026-05-05 09:45 49.65944 -121.69276 19622 ft 432 kts 243°
2026-05-05 09:45 49.64413 -121.73225 19000 ft 427 kts 243°
2026-05-05 09:46 49.62871 -121.77194 18418 ft 424 kts 243°
2026-05-05 09:46 49.61382 -121.81024 17786 ft 421 kts 243°
2026-05-05 09:46 49.59883 -121.84871 17161 ft 417 kts 242°
2026-05-05 09:46 49.58396 -121.88681 16567 ft 413 kts 242°
2026-05-05 09:47 49.56918 -121.92464 15989 ft 409 kts 242°
2026-05-05 09:47 49.55456 -121.96200 15424 ft 406 kts 242°
2026-05-05 09:47 49.54006 -121.99900 14850 ft 402 kts 242°
2026-05-05 09:47 49.52564 -122.03561 14307 ft 398 kts 240°
2026-05-05 09:48 49.51117 -122.07158 13732 ft 394 kts 240°
2026-05-05 09:48 49.49668 -122.10731 13129 ft 391 kts 240°
2026-05-05 09:48 49.48699 -122.13117 12850 ft 388 kts 240°
2026-05-05 09:48 49.47282 -122.16620 12650 ft 380 kts 240°
2026-05-05 09:49 49.45956 -122.19930 12540 ft 357 kts 240°
2026-05-05 09:49 49.44697 -122.23091 12422 ft 337 kts 241°
2026-05-05 09:49 49.43508 -122.26090 12299 ft 320 kts 241°
2026-05-05 09:49 49.42380 -122.28940 12172 ft 305 kts 241°
2026-05-05 09:50 49.41304 -122.31658 12052 ft 291 kts 241°
2026-05-05 09:50 49.40216 -122.34237 11913 ft 287 kts 236°
2026-05-05 09:50 49.38966 -122.36613 11873 ft 286 kts 232°
2026-05-05 09:50 49.37663 -122.38916 11784 ft 284 kts 231°
2026-05-05 09:51 49.36354 -122.41193 11687 ft 284 kts 231°
2026-05-05 09:51 49.35043 -122.43466 11525 ft 286 kts 231°
2026-05-05 09:51 49.33707 -122.45784 10932 ft 293 kts 230°
2026-05-05 09:51 49.32335 -122.48127 10352 ft 296 kts 230°
2026-05-05 09:52 49.30950 -122.50471 9790 ft 298 kts 229°
2026-05-05 09:52 49.29554 -122.52825 9210 ft 299 kts 229°
2026-05-05 09:52 49.28162 -122.55185 8651 ft 299 kts 229°
2026-05-05 09:52 49.26777 -122.57549 8132 ft 297 kts 229°
2026-05-05 09:53 49.25401 -122.59901 7636 ft 296 kts 228°
2026-05-05 09:53 49.24053 -122.62206 7152 ft 294 kts 228°
2026-05-05 09:53 49.22693 -122.64531 6658 ft 293 kts 228°
2026-05-05 09:53 49.21342 -122.66862 6209 ft 290 kts 230°
2026-05-05 09:54 49.20187 -122.69347 5827 ft 285 kts 237°
2026-05-05 09:54 49.19160 -122.71935 5315 ft 285 kts 239°
2026-05-05 09:54 49.18170 -122.74541 4851 ft 283 kts 240°
2026-05-05 09:54 49.17192 -122.77137 4411 ft 281 kts 239°
2026-05-05 09:55 49.16342 -122.79775 4026 ft 274 kts 253°
2026-05-05 09:55 49.16174 -122.82634 3657 ft 269 kts 274°
2026-05-05 09:55 49.16416 -122.85410 3317 ft 255 kts 279°
2026-05-05 09:55 49.16732 -122.87940 3002 ft 229 kts 281°
2026-05-05 09:56 49.17017 -122.90146 2913 ft 193 kts 280°
2026-05-05 09:56 49.17245 -122.91988 2866 ft 166 kts 279°
2026-05-05 09:56 49.17436 -122.93683 2833 ft 160 kts 278°
2026-05-05 09:56 49.17623 -122.95355 2673 ft 157 kts 278°
2026-05-05 09:57 49.17809 -122.96984 2470 ft 156 kts 278°
2026-05-05 09:57 49.17996 -122.98614 2265 ft 155 kts 278°
2026-05-05 09:57 49.18183 -123.00229 2057 ft 154 kts 278°
2026-05-05 09:57 49.18370 -123.01835 1854 ft 153 kts 278°
2026-05-05 09:58 49.18563 -123.03435 1665 ft 153 kts 279°
2026-05-05 09:58 49.18760 -123.05002 1446 ft 152 kts 278°
2026-05-05 09:58 49.18944 -123.06601 1242 ft 151 kts 277°
2026-05-05 09:58 49.19119 -123.08172 1064 ft 148 kts 279°
2026-05-05 09:59 49.19313 -123.09709 901 ft 147 kts 281°
2026-05-05 09:59 49.19530 -123.11240 716 ft 151 kts 281°
2026-05-05 09:59 49.19698 -123.12852 540 ft 147 kts 278°
2026-05-05 09:59 49.19866 -123.14332 305 ft 139 kts 280°
2026-05-05 10:00 49.20033 -123.15825 120 ft 141 kts 279°
2026-05-05 10:00 49.20190 -123.17173 27 ft 109 kts 280°
2026-05-05 10:00 49.20299 -123.18126 28 ft 74 kts 279°
2026-05-05 10:00 49.20362 -123.18716 27 ft 38 kts 279°
2026-05-05 10:01 49.20392 -123.19023 28 ft 28 kts 271°
2026-05-05 10:01 49.20377 -123.19266 24 ft 21 kts 270°
2026-05-05 10:01 49.20358 -123.19396 28 ft 0 kts 251°
2026-05-05 10:01 49.20357 -123.19396 28 ft 0 kts 251°
2026-05-05 10:02 49.20349 -123.19422 28 ft 6 kts 244°
2026-05-05 10:02 49.20303 -123.19568 27 ft 20 kts 242°
2026-05-05 10:02 49.20270 -123.19608 28 ft 1 kts 172°
2026-05-05 10:02 49.20247 -123.19564 29 ft 10 kts 118°
2026-05-05 10:03 49.20227 -123.19399 27 ft 20 kts 99°
2026-05-05 10:03 49.20205 -123.19187 26 ft 20 kts 99°
2026-05-05 10:03 49.20184 -123.18991 29 ft 18 kts 99°
2026-05-05 10:03 49.20163 -123.18804 28 ft 18 kts 99°
2026-05-05 10:04 49.20143 -123.18624 29 ft 16 kts 100°
2026-05-05 10:04 49.20108 -123.18521 27 ft 7 kts 142°
2026-05-05 10:04 49.20097 -123.18509 27 ft 0 kts 145°
2026-05-05 10:05 49.20082 -123.18499 28 ft 4 kts 153°
2026-05-05 10:05 49.20047 -123.18447 28 ft 8 kts 122°
2026-05-05 10:05 49.20017 -123.18363 29 ft 8 kts 136°
2026-05-05 10:06 49.20003 -123.18362 28 ft 3 kts 187°
2026-05-05 10:06 49.19982 -123.18367 29 ft 3 kts 187°
2026-05-05 10:06 49.19972 -123.18368 28 ft 0 kts 184°